Regional Weather Roundup
Issued by NWS

Home | Current Version | Previous Version | Text Only | Print | Product List | Glossary On
Versions: 1 2 3 4 5 6 7 8 9 10 11 12 13 14 15 16 17 18 19 20 21 22 23 24 25 26 27 28 29 30 31 32 33 34 35 36 37 38 39 40 41 42 43 44 45 46 47 48 49 50
997
ASUS44 KJAN 010210
RWRMS

MISSISSIPPI HOURLY WEATHER ROUNDUP
NATIONAL WEATHER SERVICE JACKSON MS
800 PM CST SAT JAN 31 2015

NOTE: "FAIR: INDICATES FEW OR NO CLOUDS BELOW 12,000 FEET WITH NO
SIGNIFICANT WEATHER AND/OR OBSTRUCTIONS TO VISIBILITY.

MSZ001>002-007>008-010>013-018>021-025>028-034>036-010300-
NORTHWEST MISSISSIPPI

CITY           SKY/WX    TMP DP  RH WIND       PRES   REMARKS
CLARKSDALE     FAIR      43  37  81 CALM      30.16S
CLEVELAND      FAIR      44  39  82 CALM      30.15F
GREENWOOD      CLOUDY    53  24  32 S8        30.17S
GREENVILLE     CLOUDY    49  34  56 E6        30.13F
GRENADA        FAIR      48  32  53 E5        30.17S
OLIVE BRANCH   MOCLDY    43  28  56 E5        30.16S
OXFORD         FAIR      46  23  39 SE7       30.17F
TUNICA         CLOUDY    41  32  70 N3        30.16S
$$

MSZ003>006-009-014>017-022>024-029>033-037>039-010300-
NORTHEAST MISSISSIPPI

CITY           SKY/WX    TMP DP  RH WIND       PRES   REMARKS
COLUMBUS AFB   CLOUDY    48  23  38 SE2       30.20F
GOLDN TRIANGLE CLEAR     50  23  34 SE8       30.19F
STARKVILLE     FAIR      50  25  37 SE6       30.19F
TUPELO         CLOUDY    49  26  41 E5        30.19F
$$

MSZ040-058-010300-
CENTRAL MISSISSIPPI

CITY           SKY/WX    TMP DP  RH WIND       PRES   REMARKS
JACKSON INTL   CLOUDY    49  33  54 CALM      30.18S
JACKSON HAWKNS CLOUDY    53  28  38 SE7       30.17S
MERIDIAN KEY   MOCLDY    51  24  34 E6        30.21S
MERIDIAN NAS   CLOUDY    48  28  46 SE7       30.21F
RAYMOND        FAIR      48  45  87 E5        30.17F
VICKSBURG      CLOUDY    54  33  45 SE8       30.16S
$$

MSZ059>079-010300-
SOUTH MISSISSIPPI

CITY           SKY/WX    TMP DP  RH WIND       PRES   REMARKS
BROOKHAVEN     FAIR      50  34  53 CALM      30.19S
HATTIESBURG    MOCLDY    48  36  63 CALM      30.22R
MCCOMB         MOCLDY    52  39  61 SE7       30.17F
NATCHEZ        MOCLDY    54  37  54 SE7       30.16S
PINE BELT      MOCLDY    43  34  70 SE3       30.21S
$$

MSZ080>082-010300-
COASTAL MISSISSIPPI

CITY           SKY/WX    TMP DP  RH WIND       PRES   REMARKS
BAY ST LOUIS   CLEAR     54  45  71 E5        30.20F
BILOXI         CLOUDY    52  46  80 E6        30.20F
PASCAGOULA     MOCLDY    45  43  93 CALM      30.22S
GULFPORT       CLOUDY    52  46  80 E5        30.21S
$$



USA.gov is the U.S. government's official web portal to all federal, state and local government web resources and services.